Location: Milton Keynes
(52.0316°N, 0.7531°W)
Time: 23:29:42
(UTC+00:00)

Envisat - Pass Details

Date: 08 December 2023
Orbit: 762 x 764 km, 98.3° (Epoch: 23 February)

Event Time Altitude Azimuth Distance (km) Brightness Sun altitude
Rises 04:41:59 0° 10° (N) 3,245 6.4 -28.8°
Reaches altitude 10° 04:44:25 10° 2° (N) 2,315 5.5 -28.4°
Enters shadow 04:44:33 11° 2° (N) 2,265 5.4 -28.4°
